WetterOnline ( https://www.wetteronline.de )

Wetter aktuell Geisenheim

Aktuelles Wetter: Geisenheim (110m)

6-stündlich | Neueste Meldungen
Ortszeit Temperatur Wetter
So, 25.09. 2:00 12.5° C Regen
Sa, 24.09. 20:00 13.3° C wolkig
Sa, 24.09. 14:00 16.9° C bewölkt
Sa, 24.09. 8:00 8.1° C bewölkt
Sa, 24.09. 2:00 10.6° C bedeckt
Fr, 23.09. 20:00 14.3° C bedeckt
Fr, 23.09. 14:00 16.5° C wolkig
Fr, 23.09. 8:00 5.9° C wolkig
Ortszeit Temperatur Wetter
So, 25.09. 4:30 12.4° C Sprühregen
So, 25.09. 4:20 12.4° C Sprühregen
So, 25.09. 4:10 12.4° C Sprühregen
So, 25.09. 4:00 12.4° C leichter Regen
So, 25.09. 3:50 12.4° C leichter Regen
So, 25.09. 3:40 12.4° C leichter Regen
So, 25.09. 3:30 12.5° C leichter Regen
So, 25.09. 3:00 12.5° C leichter Regen
So, 25.09. 2:30 12.5° C leichter Regen
So, 25.09. 2:00 12.5° C Regen
So, 25.09. 1:30 12.5° C leichter Regen
Ortszeit Relative Feuchte Sichtweite
So, 25.09. 2:00 96% 14 km
Sa, 24.09. 20:00 89% 55 km
Sa, 24.09. 14:00 60% 50 km
Sa, 24.09. 8:00 93% 35 km
Sa, 24.09. 2:00 86% 50 km
Fr, 23.09. 20:00 74% 9 km
Fr, 23.09. 14:00 55% 55 km
Fr, 23.09. 8:00 93% 30 km
Ortszeit Relative Feuchte Sichtweite
So, 25.09. 4:30 96% 6 km
So, 25.09. 4:20 96% -
So, 25.09. 4:10 97% -
So, 25.09. 4:00 96% 5.0 km
So, 25.09. 3:50 96% -
So, 25.09. 3:40 95% -
So, 25.09. 3:30 95% 4.5 km
So, 25.09. 3:00 95% 8 km
So, 25.09. 2:30 96% 9 km
So, 25.09. 2:00 96% 14 km
So, 25.09. 1:30 97% 4.6 km
Ortszeit Niederschlagsmenge Niederschlagsart
So, 25.09. 2:00 4 l/m2 in 6 Std. Regen
Sa, 24.09. 20:00 5 l/m2 in 12 Std. Regen
Sa, 24.09. 14:00 0.1 l/m2 in 6 Std. Regen
Sa, 24.09. 8:00 0.0 l/m2 in 12 Std. -
Sa, 24.09. 2:00 0.0 l/m2 in 6 Std. -
Fr, 23.09. 20:00 0.0 l/m2 in 12 Std. -
Fr, 23.09. 14:00 0.0 l/m2 in 6 Std. -
Fr, 23.09. 8:00 0.0 l/m2 in 12 Std. -
Ortszeit Niederschlagsmenge Niederschlagsart
So, 25.09. 4:30 0.1 l/m2 in 1 Std. -
So, 25.09. 4:20 keine Meldung -
So, 25.09. 4:10 keine Meldung -
So, 25.09. 4:00 0.9 l/m2 in 1 Std. Regen
So, 25.09. 3:50 keine Meldung -
So, 25.09. 3:40 keine Meldung -
So, 25.09. 3:30 0.2 l/m2 in 1 Std. -
So, 25.09. 3:00 0.5 l/m2 in 1 Std. Regen
So, 25.09. 2:30 0.1 l/m2 in 1 Std. -
So, 25.09. 2:00 1.3 l/m2 in 1 Std. Regen
So, 25.09. 1:30 1.2 l/m2 in 1 Std. -
Ortszeit Stärke Spitze Richtung
km/h Bft. km/h Grad Sektor
So, 25.09. 2:00 0 0 11 - -
Sa, 24.09. 20:00 4 1 32 290° W
Sa, 24.09. 14:00 2 1 11 140° SO
Sa, 24.09. 8:00 0 0 14 - -
Sa, 24.09. 2:00 4 1 14 250° W
Fr, 23.09. 20:00 7 2 14 350° N
Fr, 23.09. 14:00 6 1 13 170° S
Fr, 23.09. 8:00 0 0 7 - -
Ortszeit Stärke Spitze Richtung
km/h Bft. km/h Grad Sektor
So, 25.09. 4:30 2 1 4 170° S
So, 25.09. 4:20 2 1 - 170° S
So, 25.09. 4:10 2 1 - 170° S
So, 25.09. 4:00 0 0 4 - -
So, 25.09. 3:50 0 0 - 310° NW
So, 25.09. 3:40 0 0 - 320° NW
So, 25.09. 3:30 0 0 4 - -
So, 25.09. 3:00 0 0 4 - -
So, 25.09. 2:30 0 0 4 - -
So, 25.09. 2:00 0 0 4 - -
So, 25.09. 1:30 2 1 4 190° S
Ortszeit Untergrenze Bedeckung Gattung
total tief tief mittel hoch
So, 25.09. 2:00 1800 m 8/8 8/8 - - -
Sa, 24.09. 20:00 1500 m 8/8 3/8 - - -
Sa, 24.09. 14:00 1500 m 8/8 6/8 - - -
Sa, 24.09. 8:00 2700 m 8/8 4/8 - - -
Sa, 24.09. 2:00 3600 m 8/8 8/8 - - -
Fr, 23.09. 20:00 4800 m 8/8 8/8 - - -
Fr, 23.09. 14:00 6600 m 8/8 5/8 - - -
Fr, 23.09. 8:00 8100 m 8/8 0/8 - - -
Ortszeit Bedeckungsgrad in Achtel und Wolkenuntergrenze
So, 25.09. 4:30 3(180m) 7(2100m)
So, 25.09. 4:20 3(180m) 7(2100m)
So, 25.09. 4:10 7
So, 25.09. 4:00 3(240m) 6(2100m) 7(2400m)
So, 25.09. 3:50 3(240m) 6(2100m) 7(2400m)
So, 25.09. 3:40 7
So, 25.09. 3:30 1(120m) 7(390m)
So, 25.09. 3:00 1(120m) 7(330m) 7(1800m)
So, 25.09. 2:30 1(330m) 8(1800m)
So, 25.09. 2:00 8(1800m)
So, 25.09. 1:30 1(90m) 7(1800m)
Ortszeit Luftdruck NN (hPa) Tendenz (hPa in 3 Std.)
So, 25.09. 2:00 1013 - 0,2
Sa, 24.09. 20:00 1013 + 0,6
Sa, 24.09. 14:00 1013 - 0,6
Sa, 24.09. 8:00 1013 - 0,4
Sa, 24.09. 2:00 1015 - 0,5
Fr, 23.09. 20:00 1015 - 0,7
Fr, 23.09. 14:00 1017 - 1,4
Fr, 23.09. 8:00 1019 - 0,3
Ortszeit Luftdruck NN (hPa) Tendenz (hPa in 3 Std.)
So, 25.09. 4:30 1013 - 0,3
So, 25.09. 4:20 1013 keine Meldung
So, 25.09. 4:10 1013 keine Meldung
So, 25.09. 4:00 1013 - 0,4
So, 25.09. 3:50 1013 keine Meldung
So, 25.09. 3:40 1013 keine Meldung
So, 25.09. 3:30 1013 - 0,6
So, 25.09. 3:00 1013 - 0,3
So, 25.09. 2:30 1013 0,0
So, 25.09. 2:00 1013 - 0,2
So, 25.09. 1:30 1013 0,0
Ortszeit Schneehöhe (cm)
So, 25.09. 2:00 0
Sa, 24.09. 20:00 0
Sa, 24.09. 14:00 0
Sa, 24.09. 8:00 0
Sa, 24.09. 2:00 0
Fr, 23.09. 20:00 0
Fr, 23.09. 14:00 0
Fr, 23.09. 8:00 0
Ortszeit Schneehöhe (cm)
So, 25.09. 4:30 0
So, 25.09. 4:20 0
So, 25.09. 4:10 0
So, 25.09. 4:00 0
So, 25.09. 3:50 0
So, 25.09. 3:40 0
So, 25.09. 3:30 0
So, 25.09. 3:00 0
So, 25.09. 2:30 0
So, 25.09. 2:00 0
So, 25.09. 1:30 0
Link zu dieser Seite / Seite empfehlen

Das Wetter in ...